Location: Collado de Piedrafita
(42.7882°N, 0.2587°W)
Time: 14:13:39
(UTC+00:00)

Daily predictions for brighter satellites

Satellite Brightness Start Highest point End
(mag) Time Altitude Azimuth Time Altitude Azimuth Time Altitude Azimuth
Sich 1 4.1 19:55:10 10° NNW 19:59:23 47° W 20:03:31 10° SSW
ATLAS 5 CENTAUR R/B 4.3 19:50:43 10° WSW 20:00:26 16° SW 20:05:27 10° S
Cosmos 44 4.4 19:56:55 10° NW 20:00:51 34° WSW 20:04:47 10° S
Meteor 1-11 Rocket 4.2 19:55:19 10° N 20:01:10 53° ENE 20:06:55 10° SSE
Cosmos 1656 4.3 19:56:30 10° SW 20:02:02 62° WNW 20:07:30 10° NNE
Cosmos 2263 Rocket 3.9 19:58:10 10° N 20:02:10 20° NE 20:06:08 10° E
Cosmos 1470 Rocket 4.0 19:59:19 10° N 20:03:27 43° ENE 20:07:33 10° SSE
Cosmos 2233 Rocket 4.4 19:57:56 10° SSW 20:04:15 73° W 20:10:35 10° N
Ariane Rocket 3.7 20:00:54 10° SE 20:05:31 37° ENE 20:10:12 10° N
OAO 3 Rocket 4.1 20:01:25 10° WSW 20:05:48 33° S 20:10:12 10° ESE
Cosmos 1743 3.7 20:03:16 10° NNE 20:06:38 29° ENE 20:09:57 10° SE
BREEZE-M DEB (TANK) 3.9 20:06:28 10° W 20:09:51 34° NNW 20:11:56 10° NE
Terra 4.0 20:11:19 10° ENE 20:12:44 11° ENE 20:14:08 10° NE
Resurs 01 Rocket 1.9 20:09:54 10° SSE 20:14:10 54° ENE 20:18:28 10° N
Aureole 1 Rocket 2.3 20:12:06 10° S 20:15:19 50° ESE 20:18:14 10° NNE
Cosmos 1515 Rocket 3.8 20:12:01 10° SSE 20:16:13 50° E 20:20:29 10° NNE
Landsat 7 3.9 20:14:54 10° SSE 20:19:36 85° WSW 20:24:21 10° NNW
Cosmos 2227 Rocket 2.3 20:15:04 10° NNW 20:20:47 82° WSW 20:26:26 10° SSE
Cosmos 921 Rocket 4.0 20:17:54 10° N 20:22:02 34° ENE 20:25:38 13° SE
PSLV R/B 3.8 20:19:48 10° NNE 20:23:51 83° ESE 20:27:53 10° SSW
IGS 5A 4.3 20:20:54 10° S 20:24:55 50° W 20:28:59 10° NNW
Cosmos 1980 Rocket 2.4 20:22:30 10° S 20:27:54 52° ESE 20:33:24 10° NE
CARTOSAT-1 4.4 20:26:14 13° SE 20:29:41 36° ENE 20:33:38 10° N
Cosmos 2228 Rocket 4.4 20:29:02 13° SE 20:32:01 24° E 20:35:42 10° NE
Cosmos 1464 Rocket 4.0 20:26:46 10° S 20:32:54 67° E 20:39:00 10° NNE
Cosmos 2344 3.5 20:28:18 10° SSW 20:35:54 71° ESE 20:43:23 10° NE
IRS-1A Rocket 4.3 20:30:30 10° SSE 20:36:08 89° E 20:41:58 10° NNW
Cosmos 2322 Rocket 4.1 20:36:22 10° ESE 20:37:05 10° E 20:37:48 10° E
Cosmos 2369 3.6 20:31:57 10° SSW 20:37:33 72° ESE 20:43:12 10° NNE
ARGOS Delta rocket 4.1 20:32:14 10° NNE 20:37:45 84° E 20:43:08 10° S
ISS -1.8 20:35:10 10° NW 20:38:02 25° NNE 20:40:53 10° ENE
Cosmos 1354 Rocket 4.2 20:33:24 10° S 20:38:30 53° ESE 20:43:39 10° NNE
SPOT 3 Rocket 3.9 20:36:10 14° SE 20:40:21 49° ENE 20:45:18 10° N
ATLAS 2AS CENTAUR R/B 3.1 20:32:59 10° SSW 20:40:31 54° ESE 20:47:54 10° NE
Cosmos 1536 2.8 20:38:17 10° N 20:42:19 84° W 20:46:09 11° S
Okean 1 3.8 20:40:11 14° SSE 20:43:14 40° E 20:47:01 10° NNE
Cosmos 1486 Rocket 4.4 20:38:42 10° SSW 20:43:58 67° WNW 20:49:15 10° NNE
Meteor 1-19 Rocket 4.4 20:40:04 10° SSE 20:45:15 47° E 20:50:25 10° NNE
NOSS 3-4 (A) 4.3 20:39:57 10° WSW 20:45:28 51° NW 20:51:29 10° NNE
NOSS 3-4 (C) 4.3 20:39:58 10° WSW 20:45:32 51° NW 20:51:33 10° NNE
Cosmos 1697 Rocket 3.4 20:41:12 10° SW 20:46:47 58° WNW 20:52:23 10° NNE
RESURS DK-1 2.8 20:42:58 10° S 20:46:50 40° ESE 20:50:42 10° NE
H-2A R/B 3.3 20:43:34 10° N 20:47:25 41° WNW 20:51:17 10° SW
Nadezhda 4 Rocket 4.1 20:42:53 10° N 20:49:03 64° E 20:54:07 15° SSE
SL-4 R/B 2.4 20:44:51 10° WNW 20:49:22 59° SW 20:52:09 20° SE
ARIANE 5 R/B 4.3 20:53:39 15° ESE 20:55:55 21° ENE 20:59:18 10° NNE
MetOp-B 4.1 20:52:36 15° SSE 20:57:09 87° ENE 21:02:32 10° NNW
Cosmos 2297 Rocket 3.9 20:52:34 10° NW 20:57:15 27° WSW 21:01:54 10° SSW
Cosmos 44 Rocket 4.4 20:54:12 10° NNW 20:58:25 31° NE 21:01:28 16° E
Cosmos 1184 Rocket 3.6 20:59:40 10° SSW 21:02:35 44° WNW 21:05:30 10° N
NOSS 2-1 (E) 4.4 21:08:10 20° E 21:08:10 20° E 21:09:43 10° ENE
ATLAS 3B R/B 3.9 21:00:34 10° NNW 21:07:20 38° NE 21:13:24 14° ESE
Meteor 2-9 Rocket 4.2 21:02:33 10° N 21:08:19 73° ENE 21:12:06 22° SSE
Cosmos 1975 3.7 21:08:24 10° N 21:12:10 35° ENE 21:13:33 27° ESE
Timation 2 Rocket 4.2 21:05:44 10° NNW 21:12:22 86° WSW 21:17:06 22° SSE
Cosmos 1503 Rocket 4.5 21:08:04 10° SSW 21:13:16 63° WNW 21:18:35 10° NNE
Cosmos 2026 Rocket 4.4 21:07:29 10° N 21:13:27 48° ENE 21:17:01 24° SE
Cosmos 389 Rocket 3.7 21:10:15 10° NNW 21:13:31 37° W 21:16:04 15° SSW
ERS-1 Rocket 3.2 21:12:32 25° SE 21:15:18 54° ENE 21:20:13 10° N
SL-16 R/B 2.9 21:13:29 24° SE 21:15:48 33° ESE 21:20:49 10° NE
CZ-4B R/B 4.0 21:15:36 10° NNW 21:17:59 19° WNW 21:20:19 10° WSW
Cosmos 1933 Rocket 4.5 21:15:18 10° NNW 21:19:35 46° W 21:23:10 14° SSW
Helios 1A Rocket 2.8 21:19:01 30° SSE 21:20:55 85° ENE 21:24:56 10° NNW
GENESIS II 4.4 21:20:46 33° S 21:22:03 46° ESE 21:25:48 10° NE
CZ-2C R/B 3.8 21:20:34 10° NNE 21:25:18 61° ESE 21:27:47 27° S
Cosmos 1733 Rocket 4.0 21:22:24 10° N 21:26:27 33° ENE 21:27:44 28° ESE
SJ 16-02 1.9 21:26:19 10° SSW 21:30:36 57° WNW 21:34:56 10° N
Meteor 1-18 Rocket 4.2 21:26:49 19° S 21:31:01 80° E 21:36:40 10° NNE
Cosmos 1627 Rocket 4.5 21:28:25 10° N 21:34:40 72° E 21:38:05 29° SSE
Cosmos 2278 3.9 21:30:38 10° SSW 21:36:16 74° WNW 21:41:58 10° NNE
CZ-3 Stage 3 4.5 21:31:40 10° WSW 21:37:46 19° SSW 21:38:09 19° SSW
ASTRO F (AKARI) 4.0 21:37:45 69° SE 21:38:01 77° ENE 21:41:09 10° N
Cosmos 2292 Rocket 2.4 21:35:07 10° N 21:38:05 83° E 21:38:15 77° SE
Cosmos 1862 Rocket 4.1 21:37:31 36° ESE 21:38:24 40° E 21:42:35 10° NNE
Cosmos 2360 Rocket 3.3 21:40:42 24° ESE 21:40:59 24° ESE 21:45:25 10° NE
BREEZE M DEB (TANK) 4.1 21:37:47 10° WNW 21:42:19 85° SSW 21:55:47 17° SE
Meteor 2-21 Rocket 4.5 21:37:58 10° N 21:44:04 81° W 21:47:35 27° S
Meteor 2-15 4.4 21:41:00 29° SSE 21:44:07 65° E 21:50:08 10° NNE
Cosmos 2263 Rocket 2.2 21:41:07 10° NNW 21:46:41 72° WSW 21:49:11 34° S
NOSS 2-1 (C) 2.6 21:46:44 54° SW 21:47:23 89° SSE 21:50:36 10° NE
SPOT 5 3.3 21:45:43 29° S 21:48:27 67° WSW 21:53:35 10° NNW
Terra 1.7 21:47:57 39° SSE 21:49:43 89° ENE 21:54:31 10° NNW
Cosmos 1441 Rocket 3.8 21:51:04 38° E 21:51:04 38° E 21:54:17 10° NNE
Resurs 01 Rocket 4.2 21:48:33 10° SW 21:50:59 14° W 21:53:25 10° WNW
Cosmos 1346 Rocket 2.7 21:50:23 49° S 21:51:24 84° E 21:55:26 10° N
Cosmos 482 Debris 4.1 21:48:11 10° NW 21:51:24 89° S 21:52:24 51° SE
EXPRESS MD2 4.4 21:50:36 10° WNW 21:54:22 25° SW 21:54:25 25° SW
SAR-Lupe-1 4.1 21:51:19 10° NNE 21:54:47 58° E 21:54:47 58° E
Meteor 2-16 Rocket 4.5 21:49:52 10° N 21:56:02 77° W 21:59:11 31° S
Cosmos 2279 Rocket 4.0 21:53:29 34° SSE 21:56:09 63° E 22:02:18 10° NNE
NOSS 2-1 (D) 3.0 21:56:58 43° WSW 21:57:51 67° NW 22:01:02 10° NNE
Cosmos 990 Rocket 4.3 21:57:54 42° SE 21:58:55 47° ESE 22:03:57 10° NNE
USA 215 3.7 21:56:34 10° ENE 22:02:35 38° SE 22:03:42 35° SSE
Iridium 2 3.9 22:00:44 10° N 22:04:23 53° E 22:04:23 53° E
Cosmos 1066 Rocket 4.4 22:05:06 41° SSE 22:06:47 56° E 22:12:20 10° NNE
Cosmos 1980 Rocket 4.3 22:07:33 10° WSW 22:12:12 26° NW 22:16:55 10° N
Cosmos 1898 Rocket 4.0 22:11:50 41° ESE 22:12:17 42° ESE 22:17:17 10° NNE
Iridium 4 Rocket 4.4 22:09:09 10° NNE 22:13:16 31° E 22:13:44 30° E
SL-24 R/B - RUBIN 2 3.6 22:10:27 10° NW 22:14:51 69° WSW 22:15:32 58° S
ISS -3.1 22:11:43 10° WNW 22:14:21 50° WNW 22:14:21 50° WNW
Transit 2A Rocket 4.3 22:11:59 10° NNW 22:16:24 81° WSW 22:16:52 69° S
Okean 1-7 3.8 22:17:25 37° E 22:17:25 37° E 22:21:16 10° NNE
Cosmos 2322 Rocket 2.0 22:18:02 40° SSW 22:20:08 81° ESE 22:25:47 10° NNE
Cosmos 2180 Rocket 4.4 22:21:19 43° S 22:23:26 77° E 22:29:35 10° N
Cosmos 2333 Rocket 3.1 22:25:18 31° E 22:25:18 31° E 22:30:03 10° NE
Cosmos 1844 Rocket 3.1 22:20:54 10° NNW 22:26:21 51° ENE 22:27:57 39° ESE
Cosmos 1805 3.2 22:24:44 10° N 22:28:28 75° NE 22:28:28 75° NE
ATLAS 2AS CENTAUR R/B 4.1 22:24:25 10° WSW 22:31:45 42° NW 22:38:50 10° NNE
BREEZE-M DEB (TANK) 2.3 22:29:09 10° WNW 22:31:47 89° SSW 22:31:52 85° SE
ARIANE 5 R/B 3.5 22:31:11 35° SW 22:32:05 40° W 22:36:20 10° NNW
ATLAS CENTAUR R/B 3.0 22:31:57 10° NNW 22:36:20 32° NE 22:37:50 26° E
Cosmos 44 Rocket 4.1 22:35:40 10° NW 22:39:56 35° WSW 22:40:09 35° WSW
Cosmos 1733 3.4 22:38:00 10° NNW 22:41:23 63° NW 22:41:23 63° NW
Cosmos 1766 3.7 22:39:55 10° N 22:43:23 54° NE 22:43:23 54° NE
Cosmos 2219 Rocket 3.0 22:44:47 33° E 22:44:47 33° E 22:49:26 10° NE
Cosmos 1703 Rocket 3.5 22:48:16 76° E 22:48:16 76° E 22:52:36 10° N
Cosmos 1844 3.9 22:44:19 10° NNW 22:50:08 68° ENE 22:51:27 51° ESE
Cosmos 372 Rocket 4.3 22:51:17 46° E 22:51:17 46° E 22:56:01 10° NNE
Meteor 1-4 Rocket 3.7 22:50:57 10° NNW 22:53:35 36° WNW 22:53:35 36° WNW
ATLAS 3B R/B 3.1 22:51:10 10° NW 22:58:26 60° WSW 23:00:38 44° S
SL-16 R/B 3.4 22:55:15 13° WSW 22:59:48 38° WNW 23:05:05 10° N
Cosmos 1655 Rocket 3.9 22:56:27 10° N 23:02:42 83° W 23:04:10 55° S
Cosmos 1782 Rocket 3.7 23:00:44 10° N 23:04:50 67° NE 23:04:50 67° NE
Meteor 2-10 4.2 23:03:07 10° NNW 23:08:15 58° W 23:08:49 55° SW
ERS-2 3.7 23:04:49 10° NNE 23:06:52 28° NE 23:06:52 28° NE
CZ-4C R/B 3.8 23:01:37 10° NNW 23:08:29 46° NE 23:14:17 19° ESE
NOSS 3-1 (C) 4.4 23:01:55 10° NNW 23:09:20 62° NE 23:14:03 29° ESE
Cosmos 2237 Rocket 4.2 23:14:56 15° E 23:14:56 15° E 23:17:30 10° ENE
Cosmos 1908 Rocket 4.2 23:11:48 10° NNW 23:15:46 45° W 23:15:46 45° W
COSMOS 2428 3.2 23:17:53 44° ESE 23:17:53 44° ESE 23:23:09 10° NE
Meteor 1-15 Rocket 4.3 23:13:57 10° NNW 23:19:35 68° W 23:20:25 59° SW
Cosmos 1470 3.6 23:16:02 10° N 23:19:01 46° NNE 23:19:01 46° NNE
Cosmos 1726 3.3 23:16:48 10° NNW 23:19:26 39° NW 23:19:26 39° NW
Cosmos 1300 Rocket 4.0 23:16:57 10° N 23:20:51 52° ENE 23:20:51 52° ENE
Cosmos 2242 Rocket 3.8 23:21:24 63° W 23:21:25 63° W 23:25:57 10° N
ALOS 2 2.7 23:22:00 69° NE 23:22:00 69° NE 23:26:07 10° N
Cosmos 1937 Rocket 3.7 23:22:46 54° WSW 23:23:42 64° WNW 23:28:57 10° NNE
Cosmos 2360 Rocket 2.8 23:22:25 33° WSW 23:24:37 50° WNW 23:30:07 10° NNE
Cosmos 1242 Rocket 4.3 23:23:49 10° N 23:26:07 26° NE 23:26:07 26° NE
Okean 2 Rocket 4.2 23:23:58 10° N 23:28:05 34° ENE 23:28:05 34° ENE
In-Cosmos 22 4.4 23:29:31 53° ESE 23:29:51 54° E 23:35:11 10° NNE
Cosmos 2333 4.2 23:29:02 58° SW 23:30:04 75° WNW 23:35:44 10° NNE
Cosmos 1867 3.6 23:33:44 61° ESE 23:33:44 61° ESE 23:38:57 10° NE
Meteor 1-21 4.3 23:34:35 61° SE 23:35:11 65° E 23:40:57 10° NNE
Cosmos 1626 4.0 23:37:36 25° NE 23:37:36 25° NE 23:39:36 10° NNE
Cosmos 1842 4.3 23:38:57 41° NW 23:38:57 41° NW 23:42:03 10° N
Cosmos 1680 Rocket 4.3 23:38:53 10° NW 23:43:44 37° WSW 23:43:44 37° WSW
Meteor 2-17 Rocket 4.3 23:38:36 10° N 23:44:46 80° W 23:45:46 64° SSW
Cosmos 1953 4.3 23:41:52 10° NNE 23:44:46 20° ENE 23:44:46 20° ENE
USA 215 3.5 23:39:19 10° NE 23:45:49 67° NW 23:50:59 17° WSW
Cosmos 2278 Rocket 3.5 23:41:16 10° N 23:46:23 34° NE 23:48:51 24° E
Cosmos 1674 3.9 23:50:45 38° NNE 23:50:45 38° NNE 23:53:16 10° NNE
Cosmos 1818 4.0 23:47:52 10° NW 23:52:45 48° WSW 23:52:45 48° WSW
ADEOS Rocket 2.6 23:52:27 70° S 23:53:11 89° WSW 23:59:10 10° NNW
Sich 1 Rocket 3.7 23:50:04 10° N 23:54:00 70° N 23:54:00 70° N
